Regional Weather Roundup
Issued by NWS

Home | Current Version | Previous Version | Graphics & Text | Print | Product List | Glossary On
Versions: 1 2 3 4 5 6 7 8 9 10 11 12 13 14 15 16 17 18 19 20 21 22 23 24 25 26 27 28 29 30 31 32 33 34 35 36 37 38 39 40 41 42 43 44 45 46 47 48 49 50
000
ASUS43 KTOP 120759
RWRKS

WEATHER ROUNDUP FOR KANSAS
NATIONAL WEATHER SERVICE GOODLAND KS
200 AM CST TUE DEC 12 2017

NOTE:  "FAIR" INDICATES FEW OR NO CLOUDS BELOW 12,000 FEET WITH NO
SIGNIFICANT WEATHER AND/OR OBSTRUCTIONS TO VISIBILITY.

KSZ001>006-013>018-027>032-041>047-120900-
NORTHWEST KANSAS

CITY           SKY/WX    TMP DP  RH WIND       PRES   REMARKS
GOODLAND       CLOUDY    22  14  71 W9        30.41F
HAYS           CLEAR     28  23  81 NW7       30.41S
HILL CITY      CLOUDY    29  22  75 NW13      30.42S WCI  19
RUSSELL        PTCLDY    29  26  89 NW7       30.39F
$$

KSZ061>065-074>080-084>089-120900-
SOUTHWEST KANSAS

CITY           SKY/WX    TMP DP  RH WIND       PRES   REMARKS
DODGE CITY     CLOUDY    25  18  74 NW7       30.43R
GARDEN CITY    CLOUDY    25  15  66 NW12      30.44S WCI  14
GREAT BEND     CLEAR     29  24  82 NW10      30.41S WCI  20
LIBERAL        CLOUDY    27  14  58 NW9       30.46S
$$

KSZ066>073-081>083-090>101-120900-
SOUTHEAST KANSAS

CITY           SKY/WX    TMP DP  RH WIND       PRES   REMARKS
CHANUTE        CLEAR     36  26  67 N12       30.32R WCI  28
COFFEYVILLE    CLEAR     37  27  67 NW9       30.33R
HUTCHINSON     CLEAR     37  28  70 N14       30.37R WCI  28
MEDICINE LODGE   N/A     32  26  78 N8        30.40R
NEWTON         CLEAR     35  25  66 N14       30.36R WCI  26
PARSONS        CLEAR     36  29  75 N10       30.33R WCI  28
WICHITA INTL   PTCLDY    37  28  70 N14       30.37R WCI  28
WICHITA JABRA  CLEAR     35  27  72 N12       30.36R WCI  27
WICHITA MCCONL CLEAR     35  26  69 N13       30.35R WCI  27
WINFIELD       CLEAR     31  26  82 NW7       30.36S
$$

KSZ007>012-019>026-033>040-048>060-102>105-120900-
NORTHEAST KANSAS

CITY           SKY/WX    TMP DP  RH WIND       PRES   REMARKS
CONCORDIA      CLEAR     33  23  66 NW12      30.38R WCI  24
EMPORIA        CLEAR     33  24  69 NW10      30.34R WCI  25
LAWRENCE       CLEAR     31  20  63 NW16      30.32R WCI  20
MANHATTAN      CLEAR     35  23  61 NW6       30.37S
OLATHE IND     CLEAR     30  20  66 NW15      30.30R WCI  19
OLATHE EXE     CLEAR     30  22  72 NW13G21   30.28R WCI  20
SALINA         CLEAR     33  24  69 NW12      30.40R WCI  24
TOPEKA BILLARD CLEAR     32  23  69 NW12      30.34R WCI  23
TOPEKA FORBES  CLEAR     33  24  69 N17G25    30.32R WCI  22
$$




USA.gov is the U.S. government's official web portal to all federal, state and local government web resources and services.